Wetbulb
63.70 63.63 63.25 62.84 62.46 62.05 61.88 61.65 62.36 62.94 63.24 63.19 63.46 64.10 64.22 63.87 62.43 59.30 57.14 59.26 61.75 66.97 65.39 59.19 58.28 58.33 60.54 58.98 62.34 61.99 49.76 46.42 48.66 49.56 51.10 54.79 53.26 54.61 54.13 51.88 51.99 52.11 52.26 54.84 58.13
62.05 62.01 61.83 61.56 61.10 61.19 61.13 61.16 61.04 62.07 62.59 63.37 63.68 63.35 63.45 63.38 58.57 55.76 62.25 67.01 65.75 66.70 56.77 55.44 54.43 56.05 54.20 56.93 58.34 54.47 49.74 49.92 52.89 52.92 52.36 55.73 54.19 53.25 51.59 51.27 50.23 52.02 53.17 56.91 56.80
60.66 60.63 60.37 60.12 59.73 59.79 59.94 60.17 60.41 61.33 62.10 63.12 63.15 63.05 62.77 61.96 56.29 54.38 66.79 66.09 66.33 63.96 57.77 56.15 55.79 54.76 52.08 55.44 53.34 54.98 50.11 54.06 54.24 54.65 55.59 54.56 54.01 56.06 52.08 50.34 52.48 51.17 52.45 55.60 55.04
59.10 58.93 58.74 58.43 58.31 58.02 58.60 58.99 58.86 60.08 61.40 62.49 62.55 62.48 62.43 59.49 46.59 55.54 67.12 67.30 66.23 60.25 56.21 54.91 54.01 52.53 51.37 49.65 53.30 49.09 52.56 54.33 55.53 55.74 54.91 53.22 55.12 52.80 53.24 53.70 56.71 55.75 55.09 55.60 54.63
57.59 57.51 57.21 56.90 56.71 56.59 57.21 57.90 57.75 58.94 60.15 61.56 62.31 62.09 59.67 55.14 52.26 57.21 64.28 63.36 57.49 56.93 54.55 53.04 50.64 51.54 48.95 49.82 49.98 48.18 49.41 51.49 52.95 53.78 53.89 54.49 52.17 52.27 52.77 55.40 56.54 55.79 55.60 54.67 55.50
56.80 56.67 56.38 56.15 55.99 56.06 56.56 56.96 57.55 58.18 59.68 61.05 62.02 60.84 56.27 48.93 54.66 57.49 57.35 56.32 56.52 55.85 54.89 53.89 51.32 51.22 49.05 49.02 47.73 49.45 49.43 49.06 49.99 50.97 51.59 50.48 50.27 51.22 52.57 54.85 54.12 55.26 53.57 54.61 55.03
56.53 56.42 56.09 56.19 56.80 56.90 56.63 57.28 57.52 58.37 59.49 61.21 61.70 59.83 54.36 51.51 55.74 56.50 57.66 56.27 57.27 56.47 54.01 55.43 54.03 50.79 50.49 47.17 51.41 50.09 45.77 47.52 48.18 48.40 49.03 49.67 45.61 46.18 50.75 52.78 52.16 52.07 52.82 53.28 54.69
56.44 56.26 56.09 56.77 56.83 56.97 57.11 57.81 58.77 59.43 60.56 61.65 61.42 58.59 51.64 55.59 56.44 55.49 56.62 55.84 56.92 57.03 56.34 56.38 55.25 52.70 50.46 50.40 47.71 44.68 45.15 41.61 47.01 47.80 47.34 46.58 39.63 47.66 49.65 49.29 50.29 50.95 50.92 52.13 53.45
56.19 56.10 55.90 56.51 56.61 56.95 57.45 58.32 59.59 61.27 61.23 61.09 57.87 56.43 49.72 58.25 53.74 54.97 55.58 53.66 55.36 55.99 57.03 55.42 54.61 50.53 50.36 45.01 42.58 44.10 39.27 42.61 45.52 48.98 47.55 44.87 41.98 48.01 49.80 46.70 46.25 47.04 47.71 49.08 50.69
55.97 56.65 56.36 56.19 56.22 56.50 57.13 58.74 61.34 59.00 58.90 60.03 58.02 50.76 52.76 50.31 54.74 54.99 55.23 55.29 53.08 53.55 52.20 51.71 49.83 46.27 46.00 43.21 36.53 39.31 39.54 41.30 41.28 46.00 45.85 43.90 43.57 46.59 47.74 47.56 46.81 46.82 47.15 47.29 48.21
56.31 56.23 55.72 55.72 55.93 56.16 55.75 59.43 54.80 52.78 55.64 52.08 51.61 50.70 51.09 54.84 55.77 53.02 54.63 53.17 52.70 50.31 44.86 49.21 42.92 40.97 43.65 44.79 44.83 43.05 41.18 40.59 43.58 46.19 42.82 42.00 42.42 44.76 47.05 45.52 45.44 46.10 46.42 46.79 46.95
55.71 55.79 55.45 55.40 55.39 55.37 57.58 53.89 52.69 52.94 48.76 54.70 52.83 52.29 54.04 54.61 50.31 51.20 54.54 49.33 49.08 44.74 47.55 44.73 40.62 45.70 46.63 46.09 44.31 43.16 40.85 40.47 43.57 45.72 42.50 41.63 42.41 45.21 43.67 44.54 43.83 45.39 45.88 46.79 47.61
54.91 55.36 55.16 55.11 55.19 56.17 56.59 53.91 58.78 57.91 48.91 51.49 52.44 51.70 52.03 52.93 49.56 49.42 51.62 50.36 46.84 44.52 44.38 41.62 44.67 47.80 45.61 43.48 42.66 41.87 40.22 39.92 38.98 42.75 44.06 41.65 40.15 42.89 45.85 46.96 47.32 46.90 46.16 46.81 46.80
55.13 54.84 55.07 55.26 52.29 52.15 55.18 56.77 59.09 58.41 45.41 45.82 49.28 51.27 52.10 52.96 48.38 52.95 52.91 50.58 47.92 43.81 44.97 44.07 46.46 45.14 43.40 42.68 43.45 39.00 44.10 43.38 42.13 39.14 33.71 40.65 32.91 40.50 42.89 44.21 45.62 45.20 46.33 47.15 47.56
54.43 54.28 54.34 53.89 50.00 50.62 53.13 56.23 58.54 55.06 37.89 47.38 48.76 54.13 51.65 49.42 49.32 49.10 52.79 50.11 44.47 44.96 44.96 43.01 43.66 43.08 42.96 44.09 44.60 42.23 45.07 42.67 41.97 38.44 36.47 37.75 33.46 37.35 42.36 41.10 42.65 44.22 45.63 46.54 47.55
54.03 53.92 54.00 53.19 53.52 53.53 54.38 55.81 55.47 43.28 37.16 44.03 48.25 47.44 46.88 47.88 47.93 49.87 49.44 50.81 50.15 45.77 45.61 44.48 47.36 45.33 44.29 45.89 45.31 45.79 42.39 41.72 40.96 38.23 31.66 37.09 35.33 35.08 38.57 41.04 42.37 44.37 45.69 46.92 47.34
53.37 53.23 52.04 53.59 49.16 54.15 54.86 54.07 43.08 38.01 43.91 43.03 44.16 46.60 46.08 46.09 46.38 47.09 46.05 44.51 42.55 39.09 39.38 43.94 44.17 45.18 45.86 41.89 44.60 43.07 37.92 33.15 31.49 31.58 32.50 38.59 34.73 37.07 42.16 44.25 45.04 44.69 45.58 47.16 47.74
52.66 53.07 54.49 54.38 54.91 55.80 54.88 47.97 37.36 42.23 42.28 46.75 45.82 45.73 43.18 45.12 45.48 45.97 44.46 42.29 44.89 42.98 39.71 38.19 36.41 41.91 45.02 42.35 39.74 40.82 38.27 32.54 26.67 29.10 32.32 39.05 33.37 38.11 44.19 45.17 46.36 47.82 47.54 47.91 47.67
52.24 52.23 52.16 53.34 55.75 56.42 50.44 40.52 38.13 41.84 44.84 43.50 45.57 41.83 42.99 44.60 42.78 43.67 43.20 42.23 43.22 43.29 38.01 37.98 38.31 42.76 44.28 44.13 42.53 40.02 35.93 39.29 35.16 35.84 31.43 36.33 38.00 42.33 43.78 43.40 45.16 46.51 46.91 46.46 47.07
48.77 49.18 49.13 53.21 54.81 53.33 46.60 41.21 42.56 45.94 45.93 45.55 40.84 43.20 40.19 42.53 42.39 42.12 42.58 44.23 43.39 45.85 44.29 40.86 35.58 41.97 42.54 43.19 42.95 39.16 42.31 35.07 35.08 27.66 27.31 33.80 34.15 36.14 40.33 42.42 45.04 44.43 44.69 45.62 47.10
48.76 45.43 49.67 52.96 53.88 48.66 41.10 41.49 44.03 47.22 46.24 43.32 42.47 41.46 42.27 41.59 42.66 41.92 41.60 43.06 44.97 45.08 45.84 41.56 38.93 37.90 40.81 39.15 39.37 38.22 36.73 37.58 37.13 35.40 29.05 28.85 33.03 41.06 42.38 43.59 43.08 43.77 45.18 46.22 47.17
47.69 41.97 50.17 52.13 44.97 44.04 41.88 42.41 44.24 44.35 46.03 45.05 45.38 43.99 42.27 42.89 41.49 41.90 41.19 41.81 45.85 46.13 42.14 43.68 38.06 34.84 38.53 40.74 42.53 40.08 39.37 39.14 33.35 32.70 34.09 32.18 33.14 44.98 44.25 44.42 44.88 44.54 46.01 46.48 47.32
42.76 43.21 50.51 50.64 40.18 41.36 43.03 42.64 43.58 42.71 42.31 42.63 41.86 43.59 44.24 41.23 38.28 42.98 43.30 45.42 45.66 43.63 40.52 42.05 38.58 32.56 34.56 36.77 39.51 37.84 40.18 39.85 38.57 36.75 32.46 29.42 33.54 44.01 44.21 43.78 44.63 42.98 43.56 44.72 45.81
43.87 38.92 43.39 45.10 43.47 40.38 38.49 39.35 39.71 43.72 42.46 43.28 41.40 43.29 40.16 39.59 42.73 40.95 41.27 44.42 45.20 43.79 46.47 44.91 39.45 36.33 32.20 35.64 38.26 36.21 39.57 40.14 37.45 30.98 32.47 33.90 36.99 41.17 42.12 41.22 42.32 42.07 42.57 43.29 44.04
43.25 37.94 40.09 34.62 36.68 38.18 38.85 38.61 37.11 35.54 39.63 42.22 39.87 38.31 37.16 35.35 37.50 37.96 39.28 39.94 43.07 44.56 41.72 39.45 34.37 37.93 39.21 40.39 40.53 39.43 39.06 39.29 37.05 37.60 33.37 36.33 37.77 41.18 40.19 40.18 41.11 42.42 43.02 42.41 42.76
39.65 37.94 41.98 37.44 38.90 37.42 37.17 35.51 34.65 35.09 36.43 36.70 35.23 36.21 36.30 33.88 34.98 32.72 35.89 36.37 36.13 40.07 37.78 38.35 32.24 34.89 32.90 37.69 38.32 36.44 38.69 39.07 39.24 39.53 38.96 39.22 38.53 40.57 41.04 40.64 40.32 40.41 42.18 41.35 41.37
44.98 45.38 41.22 36.63 36.20 34.95 34.14 34.59 34.55 36.26 37.77 38.28 36.31 34.59 33.62 35.41 37.63 37.95 37.84 37.49 37.12 34.91 33.65 33.47 32.44 31.04 26.74 34.67 34.66 31.05 36.57 38.11 38.09 37.33 37.38 34.25 36.73 39.90 38.92 39.73 38.91 39.77 41.66 41.96 41.44
MSLP
1020.93 1020.58 1020.24 1019.85 1019.45 1019.00 1018.55 1018.07 1017.54 1017.02 1016.55 1016.07 1015.59 1015.19 1014.82 1014.46 1013.70 1012.51 1011.97 1011.17 1010.90 1010.88 1010.93 1010.19 1009.56 1009.43 1009.38 1009.39 1009.54 1009.55 1009.60 1008.93 1008.06 1007.41 1006.83 1006.62 1006.92 1007.49 1007.91 1008.28 1008.72 1009.31 1009.80 1010.55 1011.88
1021.17 1020.76 1020.35 1019.90 1019.45 1018.99 1018.50 1018.00 1017.46 1016.92 1016.38 1015.87 1015.37 1014.99 1014.69 1014.51 1013.62 1011.86 1011.30 1010.85 1010.80 1010.85 1010.46 1009.87 1009.51 1009.21 1009.27 1009.19 1009.35 1009.51 1009.23 1008.39 1007.60 1007.31 1007.12 1007.08 1007.28 1007.57 1008.12 1008.29 1008.88 1009.68 1010.54 1011.31 1012.11
1021.30 1020.87 1020.40 1019.93 1019.43 1018.95 1018.40 1017.87 1017.31 1016.74 1016.16 1015.64 1015.16 1014.79 1014.59 1014.45 1013.03 1011.29 1011.09 1010.79 1010.89 1010.87 1010.40 1009.92 1009.69 1009.53 1009.41 1009.09 1009.22 1009.04 1009.03 1008.30 1007.92 1007.65 1007.54 1007.55 1007.64 1007.72 1007.94 1008.24 1008.20 1009.06 1010.29 1011.31 1012.10
1021.44 1020.93 1020.44 1019.93 1019.37 1018.78 1018.23 1017.68 1017.13 1016.54 1015.96 1015.45 1015.01 1014.63 1014.46 1014.03 1012.22 1010.88 1010.84 1010.83 1010.87 1010.80 1010.29 1009.65 1009.46 1009.46 1009.36 1009.22 1008.73 1008.89 1008.77 1008.40 1008.14 1008.02 1008.22 1008.31 1008.12 1007.83 1007.97 1008.19 1007.80 1008.00 1009.13 1010.48 1011.60
1021.58 1021.02 1020.44 1019.88 1019.29 1018.65 1017.98 1017.39 1016.85 1016.27 1015.71 1015.27 1014.85 1014.59 1014.32 1012.95 1010.89 1010.56 1010.59 1010.68 1010.61 1010.44 1010.00 1009.84 1009.66 1009.29 1009.42 1009.08 1008.89 1008.78 1008.72 1008.30 1008.16 1008.30 1008.47 1008.55 1008.44 1008.37 1008.01 1007.72 1007.70 1008.08 1009.14 1010.03 1010.88
1021.60 1021.02 1020.42 1019.80 1019.17 1018.40 1017.66 1017.00 1016.48 1015.97 1015.43 1015.00 1014.63 1014.62 1014.10 1011.84 1010.04 1010.08 1010.27 1010.35 1010.27 1010.12 1009.90 1009.87 1009.81 1009.87 1009.88 1009.43 1009.31 1008.91 1008.82 1008.58 1008.31 1008.19 1008.28 1008.39 1008.28 1008.23 1007.81 1007.47 1007.53 1007.76 1008.44 1009.29 1009.92
1021.63 1020.99 1020.34 1019.66 1018.89 1018.06 1017.25 1016.51 1015.96 1015.52 1015.07 1014.68 1014.44 1014.14 1012.63 1010.80 1009.92 1010.03 1010.31 1010.14 1010.20 1010.17 1010.11 1010.06 1010.26 1010.28 1009.94 1009.71 1009.34 1009.16 1009.04 1008.48 1007.89 1007.81 1007.94 1007.93 1008.07 1007.85 1007.22 1007.20 1007.27 1007.53 1007.76 1008.24 1008.81
1021.62 1020.95 1020.21 1019.40 1018.49 1017.51 1016.62 1015.84 1015.33 1014.89 1014.56 1014.30 1014.32 1013.76 1011.62 1010.16 1010.05 1010.22 1010.12 1010.09 1010.22 1010.16 1010.35 1010.41 1010.43 1010.43 1010.23 1009.83 1009.43 1009.11 1008.81 1008.18 1007.10 1007.42 1008.14 1008.44 1007.91 1007.16 1006.30 1006.34 1006.80 1006.95 1007.29 1007.36 1007.82
1021.63 1020.91 1020.09 1019.12 1018.11 1016.94 1015.92 1015.05 1014.68 1014.20 1014.08 1014.07 1014.15 1013.00 1010.74 1010.38 1010.15 1010.05 1010.07 1009.91 1009.84 1010.14 1010.37 1010.48 1010.55 1010.37 1009.94 1009.97 1009.38 1008.69 1008.46 1007.95 1007.43 1007.43 1007.89 1008.42 1007.75 1007.03 1006.30 1006.29 1006.48 1006.51 1006.49 1006.67 1006.99
1021.58 1020.78 1019.87 1018.87 1017.75 1016.44 1015.37 1014.04 1013.87 1014.04 1013.91 1013.39 1012.81 1012.49 1010.79 1010.29 1010.34 1010.39 1010.07 1010.11 1010.00 1010.02 1010.23 1010.41 1010.40 1010.18 1009.91 1009.68 1009.47 1009.17 1008.90 1008.31 1007.92 1007.62 1007.90 1008.08 1007.39 1007.14 1006.49 1006.09 1005.96 1006.15 1006.21 1006.22 1006.45
1021.52 1020.68 1019.69 1018.72 1017.59 1016.24 1015.25 1013.33 1013.85 1014.01 1012.82 1012.36 1012.13 1011.52 1010.79 1010.67 1010.48 1010.31 1009.95 1010.08 1010.10 1010.20 1010.13 1009.80 1010.18 1009.77 1009.50 1009.41 1009.47 1009.65 1009.40 1008.97 1008.20 1007.88 1008.06 1008.00 1007.43 1006.69 1005.96 1005.57 1005.38 1005.48 1005.73 1005.95 1005.99
1021.45 1020.65 1019.62 1018.54 1017.57 1016.41 1015.25 1014.89 1016.17 1016.70 1014.45 1012.25 1012.01 1011.69 1011.27 1011.26 1010.44 1009.89 1010.09 1010.15 1009.93 1009.91 1009.62 1009.98 1009.73 1009.68 1009.61 1009.75 1009.91 1009.90 1009.67 1009.13 1008.32 1008.06 1008.38 1007.81 1007.18 1006.32 1005.88 1005.54 1005.19 1005.11 1005.44 1005.53 1005.80
1021.49 1020.62 1019.60 1018.46 1017.36 1016.20 1015.92 1016.18 1016.01 1016.11 1014.94 1012.29 1011.58 1011.23 1011.04 1011.28 1010.28 1009.88 1010.22 1009.96 1010.03 1009.95 1009.72 1009.70 1009.38 1009.65 1009.80 1009.84 1009.92 1009.81 1009.64 1009.32 1009.42 1009.12 1008.17 1007.92 1007.11 1006.78 1006.38 1005.98 1005.72 1005.55 1005.61 1005.74 1005.95
1021.50 1020.62 1019.50 1018.44 1017.74 1016.32 1016.16 1016.39 1015.97 1015.95 1014.44 1012.40 1011.38 1011.07 1011.11 1010.99 1010.59 1010.30 1010.31 1010.55 1010.02 1009.99 1009.88 1009.62 1009.59 1009.78 1009.89 1009.88 1009.82 1009.91 1009.91 1009.91 1010.04 1010.04 1009.33 1008.62 1008.42 1007.74 1007.39 1007.37 1007.33 1007.18 1007.00 1006.76 1006.65
1021.39 1020.52 1019.58 1019.00 1018.31 1016.72 1016.97 1016.47 1016.08 1015.77 1013.81 1011.78 1011.17 1011.10 1010.80 1010.87 1010.60 1010.58 1010.67 1010.59 1010.53 1010.17 1010.41 1009.78 1009.67 1009.92 1010.02 1009.81 1009.97 1010.12 1010.27 1010.36 1010.47 1010.58 1010.19 1008.75 1008.79 1008.58 1008.06 1008.28 1008.55 1008.34 1008.21 1007.77 1007.59
1021.14 1020.32 1019.69 1018.29 1017.48 1017.25 1016.94 1016.53 1015.97 1015.13 1012.69 1011.58 1011.12 1010.90 1010.70 1010.57 1010.34 1010.60 1010.68 1010.96 1010.59 1010.54 1010.14 1009.79 1009.86 1010.26 1010.18 1010.13 1010.27 1010.36 1010.39 1010.00 1010.24 1010.65 1010.12 1008.67 1008.63 1008.73 1008.64 1008.77 1008.96 1008.92 1008.88 1008.48 1008.22
1020.76 1020.00 1019.62 1018.66 1017.83 1017.22 1016.85 1015.97 1015.19 1013.72 1012.15 1012.00 1011.46 1011.06 1010.69 1010.34 1010.22 1010.43 1010.50 1010.68 1010.72 1010.78 1010.32 1009.47 1009.66 1010.15 1010.58 1010.38 1010.22 1010.73 1010.81 1010.31 1010.52 1010.43 1009.46 1008.83 1008.68 1008.63 1008.78 1008.89 1009.07 1009.25 1009.19 1009.02 1008.75
1020.40 1019.42 1018.35 1017.69 1017.57 1017.28 1016.58 1015.52 1014.67 1013.45 1013.25 1012.91 1012.16 1011.59 1011.05 1010.84 1010.65 1010.67 1010.82 1010.83 1011.10 1011.30 1011.04 1010.24 1010.29 1010.44 1010.54 1010.58 1010.66 1010.54 1010.84 1011.00 1010.72 1010.11 1009.58 1008.98 1008.64 1008.61 1008.77 1008.79 1008.90 1009.17 1009.43 1009.57 1009.51
1020.03 1018.04 1017.72 1017.59 1017.34 1017.14 1016.47 1015.31 1015.67 1015.36 1015.04 1014.12 1012.66 1011.96 1011.17 1011.32 1011.63 1011.21 1011.42 1012.24 1012.55 1012.72 1012.61 1011.28 1010.78 1010.91 1010.81 1010.79 1011.00 1010.82 1010.96 1010.90 1010.94 1009.79 1009.78 1008.51 1008.60 1008.85 1008.96 1009.17 1009.16 1009.61 1009.97 1010.28 1010.28
1020.70 1018.55 1017.75 1017.49 1017.05 1016.84 1016.09 1015.68 1016.11 1016.46 1016.07 1015.15 1013.93 1013.28 1012.55 1012.23 1012.20 1011.92 1012.26 1014.34 1014.33 1014.26 1013.87 1012.67 1011.93 1011.22 1011.49 1011.38 1011.20 1011.26 1011.38 1011.16 1011.15 1010.96 1010.04 1008.50 1008.09 1007.94 1009.04 1009.57 1009.73 1010.31 1010.91 1011.12 1011.14
1020.50 1018.69 1017.92 1017.39 1016.76 1016.42 1016.06 1016.83 1017.12 1017.19 1017.06 1016.44 1015.70 1014.99 1014.18 1013.86 1013.72 1013.35 1013.80 1015.77 1015.86 1015.30 1014.73 1014.00 1013.08 1012.18 1011.81 1011.39 1010.92 1011.53 1011.37 1011.43 1011.38 1011.15 1010.85 1009.78 1008.84 1007.36 1009.26 1010.30 1010.65 1011.20 1011.68 1011.71 1011.93
1020.00 1018.86 1018.22 1017.39 1017.03 1016.64 1017.13 1017.96 1018.29 1017.83 1017.83 1017.30 1016.89 1016.72 1016.20 1015.73 1015.16 1014.70 1015.29 1016.60 1016.97 1016.50 1015.83 1015.60 1014.60 1013.15 1011.86 1011.52 1011.32 1011.21 1011.33 1011.47 1011.77 1011.79 1011.29 1010.83 1009.88 1009.10 1009.96 1010.81 1011.31 1012.02 1012.22 1012.39 1012.58
1021.22 1019.75 1018.35 1017.39 1017.66 1017.76 1018.52 1018.66 1019.11 1018.95 1018.88 1018.43 1018.06 1018.32 1017.76 1017.30 1016.91 1016.36 1016.75 1017.95 1017.93 1017.69 1017.61 1017.23 1015.45 1014.06 1012.27 1012.54 1012.07 1012.11 1012.05 1012.29 1012.43 1012.54 1012.36 1011.83 1010.41 1009.74 1010.63 1011.38 1012.07 1012.66 1012.92 1013.14 1013.33
1022.04 1020.51 1019.66 1019.27 1019.94 1019.43 1019.54 1019.61 1019.67 1020.21 1019.87 1019.76 1019.59 1018.93 1018.89 1018.15 1017.62 1017.62 1017.98 1018.38 1018.52 1018.64 1018.35 1017.80 1016.76 1015.68 1014.62 1013.64 1013.45 1013.43 1013.16 1013.24 1013.63 1013.71 1013.11 1012.23 1011.42 1010.85 1011.92 1012.66 1013.16 1013.48 1013.64 1013.84 1013.98
1022.84 1022.88 1022.85 1021.87 1021.53 1021.37 1021.10 1020.96 1020.92 1021.15 1021.18 1020.84 1020.72 1020.92 1020.74 1019.91 1019.22 1018.90 1019.55 1019.54 1018.88 1018.99 1018.78 1018.62 1017.76 1016.71 1015.58 1014.66 1014.23 1014.04 1013.99 1014.01 1014.15 1014.21 1013.95 1013.33 1012.74 1012.74 1013.42 1013.88 1014.26 1014.36 1014.28 1014.34 1014.46
1023.99 1024.29 1023.25 1023.48 1022.99 1022.34 1022.28 1022.37 1022.53 1022.61 1022.44 1021.93 1022.24 1022.26 1022.07 1021.71 1021.44 1021.04 1020.91 1020.81 1020.22 1019.56 1019.74 1019.43 1018.56 1017.82 1016.66 1015.91 1015.14 1014.35 1014.29 1014.13 1014.02 1013.99 1013.68 1014.03 1013.77 1014.65 1014.68 1014.96 1015.27 1015.39 1014.98 1014.77 1014.84
1025.24 1024.92 1024.57 1024.52 1024.01 1023.38 1023.77 1023.82 1023.92 1023.75 1023.41 1023.36 1023.41 1023.27 1022.95 1022.88 1022.79 1022.50 1022.20 1021.72 1021.30 1020.88 1020.76 1020.42 1019.61 1018.81 1017.33 1016.39 1015.64 1014.70 1013.75 1013.46 1014.04 1014.92 1014.65 1015.11 1015.79 1015.81 1016.02 1016.20 1016.25 1015.99 1015.60 1015.37 1015.33
Wind_Speed
17 18 18 19 19 20 20 21 20 20 19 20 20 18 17 16 19 9 7 2 3 4 6 10 7 9 4 6 2 2 3 5 9 6 6 7 4 4 4 6 1 3 7 12 16
18 18 19 19 20 20 20 21 22 21 20 19 19 18 17 14 8 11 2 4 5 5 7 7 9 7 5 3 3 3 3 9 6 7 8 7 2 6 3 6 5 8 6 14 12
19 19 20 21 21 21 21 21 22 21 21 20 19 16 14 11 7 4 2 5 4 6 9 7 7 7 8 3 7 5 6 12 7 8 8 9 6 4 3 6 6 13 14 14 9
19 20 21 21 22 23 22 22 23 22 21 20 18 13 10 5 3 4 3 1 4 6 9 6 6 6 4 6 7 3 10 10 6 5 3 7 8 6 5 9 8 3 20 15 13
20 20 21 22 23 24 23 23 24 23 22 20 16 10 7 6 3 6 6 5 5 7 6 6 9 6 6 8 7 7 10 10 3 6 5 8 9 7 10 8 9 6 16 14 12
20 21 22 23 24 25 25 24 24 22 21 19 14 4 4 7 5 5 2 3 6 5 3 5 6 7 6 9 6 9 9 9 9 8 7 9 9 7 7 10 9 6 11 14 13
21 22 24 25 24 25 26 25 24 22 20 16 7 4 8 9 2 2 2 3 1 4 6 3 6 6 9 8 6 7 10 10 11 12 9 4 8 10 14 13 10 10 11 11 13
22 24 25 25 26 27 27 25 22 20 17 10 3 5 6 3 5 2 6 6 4 3 3 3 6 7 5 7 6 8 9 7 4 6 4 6 8 13 11 13 14 12 10 10 13
23 25 26 26 27 28 27 25 21 15 7 4 5 6 3 2 2 3 6 7 5 2 2 4 4 5 5 5 8 7 6 7 5 8 6 7 8 8 9 1 5 7 8 8 9
23 23 25 27 28 30 27 26 7 5 5 7 7 5 5 2 3 4 4 4 4 4 6 6 5 5 5 6 4 6 8 9 8 3 5 8 13 10 11 11 11 10 9 8 10
22 24 25 27 28 30 16 2 1 3 5 7 3 4 2 6 4 7 4 6 6 5 8 7 3 8 7 8 8 7 8 8 10 6 4 7 11 14 11 7 9 9 10 9 8
23 24 26 28 27 25 12 7 7 2 7 4 5 5 6 3 3 4 1 4 6 7 6 3 9 4 5 4 5 7 9 10 5 2 6 8 16 14 3 5 4 5 8 9 8
24 24 26 28 26 11 11 9 6 2 5 3 1 2 3 3 4 7 3 2 7 8 9 7 6 3 4 6 7 8 7 5 5 10 11 9 4 6 6 9 7 9 7 7 3
23 24 26 27 8 8 4 10 8 1 4 5 4 3 5 4 3 4 2 3 2 5 6 6 6 2 4 7 7 7 6 5 6 7 4 7 2 8 8 11 12 11 10 10 11
23 24 26 19 7 6 8 9 7 4 3 2 4 3 1 4 1 3 3 3 6 9 1 3 2 3 5 3 4 2 5 6 6 6 6 2 2 1 9 9 10 10 10 9 9
25 25 22 2 7 8 10 9 5 3 2 4 2 0 5 6 4 4 4 3 2 5 8 12 1 2 4 5 2 8 7 11 7 4 3 5 2 3 4 7 7 8 9 9 8
26 25 16 8 6 10 8 5 4 3 3 4 3 3 4 2 4 3 5 6 3 4 1 5 9 5 1 5 6 5 5 4 1 2 3 4 2 6 8 7 9 7 7 9 9
28 24 6 3 7 7 7 4 3 9 8 7 4 9 5 4 2 2 4 5 6 3 5 4 3 5 5 2 3 4 3 2 4 4 1 2 3 7 9 5 5 9 8 8 9
27 2 4 6 6 5 5 3 6 6 7 10 10 5 5 3 2 3 2 8 7 9 5 5 2 3 1 3 1 3 2 1 4 5 2 5 6 6 9 6 2 11 10 10 10
7 4 6 9 7 5 4 7 5 8 9 8 5 5 7 7 5 4 6 7 9 9 7 5 5 1 3 2 4 3 5 1 2 3 4 4 8 5 10 7 9 11 11 9 10
3 4 6 11 6 5 3 6 6 8 9 6 8 7 7 5 7 6 8 6 9 9 8 6 4 2 2 6 3 3 3 4 1 2 1 4 3 6 11 12 11 11 10 9 9
4 2 8 8 3 1 6 4 3 6 11 5 4 7 7 10 7 6 6 6 10 10 7 6 4 5 5 4 6 3 5 3 2 3 2 3 6 11 15 11 11 10 9 9 9
5 3 3 8 4 4 3 4 6 8 8 5 6 5 7 7 5 7 7 4 9 9 7 7 4 5 2 3 3 3 4 6 5 1 4 1 3 6 16 13 10 9 9 8 9
4 2 5 6 8 7 5 5 2 6 6 6 7 4 8 7 6 4 7 3 2 5 11 4 4 6 7 8 2 3 7 5 5 3 4 6 9 6 13 13 10 9 9 8 8
4 4 2 5 7 8 8 4 5 7 8 5 3 9 8 5 8 5 7 10 6 4 6 7 5 10 13 14 11 8 11 10 9 10 9 8 15 14 12 10 10 8 7 8 9
4 5 4 3 6 7 4 7 6 8 6 6 8 10 9 7 10 10 10 8 7 5 8 7 5 10 13 14 16 19 16 17 17 16 16 16 16 11 10 9 11 12 12 6 7
3 1 4 4 6 5 6 7 6 8 4 5 7 9 9 10 11 11 11 12 13 12 9 6 4 6 5 7 9 8 8 7 1 14 7 6 6 9 9 11 11 13 13 7 10
Wind_Direction
1 356 350 347 344 341 338 336 333 330 327 323 322 317 315 319 310 271 257 64 65 3 312 266 232 260 244 248 191 268 281 262 262 258 277 92 137 130 12 133 181 120 65 123 137
354 351 347 343 341 338 334 332 331 328 326 322 320 316 314 326 292 272 50 80 38 352 308 337 328 339 276 227 195 228 279 272 345 354 336 95 346 144 165 212 156 111 85 121 139
350 347 343 340 338 334 331 329 327 326 324 323 322 315 316 319 271 79 3 56 348 308 282 299 293 277 288 254 274 242 239 291 347 342 354 344 326 270 221 264 189 175 159 149 160
347 345 341 339 335 332 329 325 324 322 322 321 320 317 318 269 343 112 143 76 291 297 284 280 274 262 270 285 260 290 271 263 325 333 0 289 284 290 208 258 314 59 154 157 174
347 345 341 337 333 329 325 321 319 318 318 318 318 318 294 229 277 140 160 199 259 266 288 333 295 305 271 317 325 264 259 280 316 277 279 263 273 276 281 252 244 138 149 169 180
347 344 341 336 330 325 321 317 315 312 311 314 316 307 248 259 123 109 135 200 269 282 339 306 350 335 294 287 295 314 328 297 289 268 246 255 255 258 247 245 265 212 177 176 185
346 342 339 333 327 322 318 313 309 305 303 304 306 249 261 257 33 41 185 243 11 316 319 26 338 313 330 300 12 316 285 278 253 228 223 266 279 247 239 243 239 245 205 195 186
344 340 336 329 325 320 316 309 304 298 295 280 257 247 270 53 6 216 233 224 214 226 273 344 315 289 267 304 296 256 251 267 134 165 121 116 270 283 274 212 219 224 241 196 197
343 338 334 328 325 321 316 308 304 294 249 250 224 230 258 173 192 8 307 245 197 217 245 286 270 265 288 243 273 192 283 240 159 186 140 175 278 302 340 314 282 272 246 214 199
341 335 331 328 326 321 318 299 264 305 228 224 260 277 266 53 38 322 271 291 251 260 252 209 229 240 222 232 296 345 335 335 322 174 205 243 262 273 268 255 235 208 248 225 212
340 335 331 328 326 321 332 306 265 188 259 318 317 325 53 348 165 218 160 200 234 239 258 189 293 263 3 12 6 323 302 294 288 90 2 289 292 283 270 286 257 219 206 233 259
341 335 329 326 323 320 320 60 46 248 315 235 277 278 261 299 257 186 211 234 184 253 207 248 239 2 18 8 312 294 289 283 317 30 326 294 294 292 38 290 289 249 213 207 241
338 332 327 325 321 302 62 43 342 191 267 167 280 299 65 219 285 132 200 246 269 274 266 245 306 95 349 313 288 281 274 318 343 322 275 279 251 99 39 37 33 42 24 5 284
336 331 327 328 303 326 65 359 350 277 277 144 170 121 176 250 223 23 3 332 245 286 345 285 84 16 302 266 254 286 18 343 321 336 310 22 275 58 60 60 47 43 35 28 14
334 330 326 329 306 17 345 332 324 244 325 338 106 60 96 265 74 130 56 219 270 289 152 305 220 220 268 310 9 330 342 298 304 296 305 170 111 116 81 70 58 37 34 40 51
332 328 331 11 249 14 326 310 257 236 108 96 116 120 217 196 181 137 210 215 300 290 256 256 151 240 282 345 292 331 290 268 223 235 256 154 173 5 84 92 68 47 36 16 40
328 323 322 296 336 327 310 271 260 276 246 68 12 347 315 198 211 211 220 198 233 293 127 209 216 128 92 264 188 241 277 300 150 175 225 132 309 157 115 84 93 75 41 26 24
326 317 242 292 334 323 294 249 273 60 23 351 336 300 261 27 173 232 269 244 67 323 291 277 222 183 153 281 347 292 5 309 305 4 349 177 209 181 136 159 84 79 55 32 28
318 277 15 355 328 305 285 254 34 15 354 339 298 274 168 159 256 259 119 17 47 14 333 330 123 98 342 11 344 133 227 339 303 239 295 183 75 80 143 178 234 65 44 38 21
320 302 34 341 319 285 270 88 82 27 341 329 317 21 332 22 320 206 127 22 354 8 336 315 306 47 115 248 232 252 331 294 248 284 283 213 167 185 171 165 68 51 49 33 21
250 295 14 329 285 243 342 59 52 27 8 345 356 316 349 354 337 303 59 64 7 329 305 306 255 125 131 206 151 166 244 223 278 238 278 333 346 117 119 63 64 54 44 41 32
286 307 344 328 255 306 41 32 10 8 10 357 326 340 332 343 313 304 68 41 358 339 348 21 307 290 286 62 25 350 337 326 179 328 266 133 282 109 87 70 65 57 38 40 36
349 304 350 317 0 68 116 91 60 15 24 13 8 4 337 315 319 20 50 23 13 27 14 340 295 294 180 109 49 1 358 354 323 348 254 199 237 123 67 55 57 59 41 41 31
314 360 354 50 10 12 360 52 60 44 48 358 13 329 341 297 255 271 324 104 80 18 315 270 276 291 285 317 175 291 333 343 337 322 283 240 277 290 46 42 25 56 43 34 27
355 62 13 11 17 348 3 17 356 22 359 21 83 24 355 301 338 347 9 341 315 127 351 3 277 296 298 309 314 291 281 277 259 260 253 276 291 310 37 34 22 14 40 30 21
25 354 341 30 345 332 5 44 36 6 5 25 14 355 331 305 341 331 339 320 292 2 355 320 288 316 288 284 281 276 265 260 257 252 253 266 270 33 30 19 16 355 342 23 17
12 258 285 1 339 332 43 22 6 358 91 32 1 330 328 353 330 310 296 283 275 289 299 280 273 317 274 290 336 289 265 266 117 35 336 296 27 18 11 2 3 331 312 354 14